Location: Newark
(36.9704°N, 37.9978°E)
Time: 13:13:53
(UTC+00:00)

Hubble Space Telescope - Visible Passes

Search period start: 23 July 2019 00:00
Search period end: 02 August 2019 00:00
Orbit: 536 x 540 km, 28.5° (Epoch: 22 July)

Date Brightness Start Highest point End Pass type
(mag) Time Alt. Az. Time Alt. Az. Time Alt. Az.
29 Jul 2.4 02:00:47 10° SW 02:03:56 21° S 02:07:05 10° ESE visible
30 Jul 2.3 01:50:02 10° SW 01:53:18 23° S 01:56:35 10° ESE visible
31 Jul 2.2 01:39:58 13° SW 01:42:41 24° S 01:46:02 10° ESE visible
01 Aug 2.1 01:29:58 17° SW 01:32:04 25° S 01:35:28 10° ESE visible
